CSG-1

Last updated on Thu Mar 05 2026 00:02:40 GMT+0000 (Coordinated Universal Time)

1 44873U 19092A 26063.61253466 .00000876 00000+0 11654-3 0 9997 2 44873 97.8862 248.7238 0001314 86.5017 273.6347 14.82165385335981
UTC large
Height (km)
Speed (km/s)
/
Latitude / Longitude
Inclination (degrees)
Orbital Period (minutes)
Azimuth
Elevation
Range (km)
Doppler Factor

Next 0 passes for location: London (51.5072 / 0.1276)

Sorry there are no passes over London.